Orbital Elements at Epoch 2459200.5 (2020-Dec-17.0) TDB
Reference: JPL 24 (heliocentric ecliptic J2000)
Element | Value | Uncertainty (1-sigma) | Units |
e | .1200610329155968 | 8.1299e-08 | |
a | 2.573829544236516 | 1.7761e-08 | au |
q | 2.2648129106068 | 2.1366e-07 | au |
i | 32.19783999745947 | 4.9273e-06 | deg |
node | 118.9078699594915 | 1.0434e-05 | deg |
peri | 101.7560372750474 | 2.0741e-05 | deg |
M | 303.6849590297858 | 1.8366e-05 | deg |
tp | 2459436.433713337661 (2021-Aug-09.93371334) | 7.7169e-05 | TDB |
period | 1508.231821166244 4.13 | 1.5611e-05 4.274e-08 | d yr |
n | .2386900972037767 | 2.4706e-09 | deg/d |
Q | 2.882846177866232 | 1.9893e-08 | au |
|
| | Orbit Determination Parameters
Additional Information
|